GW4032 Weather Reports


time (UTC)temp
C
wind
direction
speed
KPH
gust
KPH
rain 1hr
cm
rain 24hr
cm
rain mn
cm
humidity
%
barometer
mb
20260510120814 15 142 1.6 1.6 0.00 0.00 0.00 83 1003.0
20260510120315 15 141 0.0 0.0 0.00 0.00 0.00 85 1003.0
20260510115814 15 142 1.6 1.6 0.00 0.00 0.00 85 1003.0
20260510115314 15 133 0.0 0.0 0.00 0.00 0.00 84 1003.0
20260510114815 15 141 0.0 0.0 0.00 0.00 0.00 86 1003.0
20260510114314 15 141 0.0 0.0 0.00 0.00 0.00 86 1003.0
20260510113814 15 141 0.0 0.0 0.00 0.00 0.00 85 1003.0
20260510113314 15 156 0.0 0.0 0.00 0.00 0.00 86 1003.0
20260510112814 15 157 0.0 0.0 0.00 0.00 0.00 87 1003.0
20260510112315 15 157 0.0 0.0 0.00 0.00 0.00 87 1003.0
20260510111815 15 149 0.0 0.0 0.00 0.00 0.00 87 1003.0
20260510111314 15 148 0.0 0.0 0.00 0.00 0.00 87 1003.0
20260510110815 15 137 1.6 1.6 0.00 0.00 0.00 87 1003.0
20260510110314 15 148 1.6 1.6 0.00 0.00 0.00 86 1003.0
20260510105814 15 155 0.0 0.0 0.00 0.00 0.00 86 1003.0
20260510105314 15 141 0.0 0.0 0.00 0.00 0.00 86 1003.0
20260510104814 15 141 0.0 0.0 0.00 0.00 0.00 86 1003.0
20260510104314 15 141 0.0 0.0 0.00 0.00 0.00 86 1003.0
20260510103815 15 141 0.0 0.0 0.00 0.00 0.00 85 1003.0
20260510103314 15 130 1.6 1.6 0.00 0.00 0.00 85 1003.0
20260510102814 15 130 1.6 1.6 0.00 0.00 0.00 85 1003.0
20260510102315 15 121 1.6 1.6 0.00 0.00 0.00 85 1003.0
20260510101814 15 104 3.2 3.2 0.00 0.00 0.00 84 1003.0
20260510101314 15 141 0.0 1.6 0.00 0.00 0.00 83 1003.0
20260510100814 15 141 0.0 1.6 0.00 0.00 0.00 82 1003.0
20260510100314 15 141 3.2 3.2 0.00 0.00 0.00 82 1003.0
20260510095814 16 95 3.2 3.2 0.00 0.00 0.00 78 1003.0
20260510095314 17 39 6.4 8.0 0.00 0.00 0.00 75 1003.0
20260510094814 17 68 3.2 3.2 0.00 0.00 0.00 74 1002.0
20260510094314 18 159 1.6 1.6 0.00 0.00 0.00 71 1002.0
20260510093814 18 183 0.0 0.0 0.00 0.00 0.00 70 1002.0
20260510093314 18 184 0.0 0.0 0.00 0.00 0.00 69 1002.0
20260510092814 18 190 1.6 1.6 0.00 0.00 0.00 69 1002.0
20260510092314 18 184 1.6 1.6 0.00 0.00 0.00 69 1002.0
20260510091815 18 180 1.6 1.6 0.00 0.00 0.00 69 1002.0
20260510091314 18 187 1.6 1.6 0.00 0.00 0.00 69 1002.0
20260510090814 18 187 0.0 0.0 0.00 0.00 0.00 68 1002.0
20260510090315 18 188 0.0 0.0 0.00 0.00 0.00 68 1002.0
20260510085814 18 194 1.6 1.6 0.00 0.00 0.00 68 1002.0
20260510085315 18 194 1.6 1.6 0.00 0.00 0.00 68 1002.0
20260510084814 18 194 1.6 1.6 0.00 0.00 0.00 67 1002.0
20260510084314 18 189 1.6 1.6 0.00 0.00 0.00 67 1002.0
20260510083815 18 190 1.6 1.6 0.00 0.00 0.00 67 1002.0
20260510083314 18 208 1.6 1.6 0.00 0.00 0.00 66 1002.0
20260510082814 18 207 1.6 1.6 0.00 0.00 0.00 66 1002.0
20260510082314 18 205 3.2 4.8 0.00 0.00 0.00 66 1002.0
20260510081817 18 196 3.2 3.2 0.00 0.00 0.00 66 1002.0
20260510081314 18 200 4.8 4.8 0.00 0.00 0.00 66 1002.0
20260510080814 18 187 3.2 3.2 0.00 0.00 0.00 68 1001.0
20260510080314 18 204 3.2 3.2 0.00 0.00 0.00 66 1001.0
20260510075814 18 197 3.2 4.8 0.00 0.00 0.00 66 1001.0
20260510075314 17 193 1.6 1.6 0.00 0.00 0.00 68 1001.0
20260510074814 17 183 0.0 1.6 0.00 0.00 0.00 68 1001.0
20260510074316 18 200 0.0 0.0 0.00 0.00 0.00 68 1001.0
20260510073814 18 185 0.0 0.0 0.00 0.00 0.00 67 1001.0
20260510073314 18 202 1.6 3.2 0.00 0.00 0.00 67 1001.0
20260510072814 18 203 1.6 1.6 0.00 0.00 0.00 66 1001.0
20260510072314 18 186 0.0 0.0 0.00 0.00 0.00 66 1001.0
20260510071814 18 180 1.6 1.6 0.00 0.00 0.00 65 1001.0
20260510071314 18 181 3.2 3.2 0.00 0.00 0.00 65 1001.0
20260510070815 18 185 1.6 4.8 0.00 0.00 0.00 65 1001.0
20260510070314 18 188 3.2 3.2 0.00 0.00 0.00 65 1001.0
20260510065814 18 180 3.2 3.2 0.00 0.00 0.00 65 1001.0
20260510065314 18 192 1.6 1.6 0.00 0.00 0.00 65 1001.0
20260510064814 18 174 1.6 1.6 0.00 0.00 0.00 66 1001.0
20260510064314 18 183 1.6 3.2 0.00 0.00 0.00 66 1001.0
20260510063815 18 192 1.6 1.6 0.00 0.00 0.00 65 1001.0
20260510063314 18 178 1.6 1.6 0.00 0.00 0.00 65 1002.0
20260510062814 18 184 1.6 3.2 0.00 0.00 0.00 64 1002.0
20260510062314 18 191 3.2 3.2 0.00 0.00 0.00 64 1002.0
20260510061814 18 191 3.2 3.2 0.00 0.00 0.00 64 1002.0
20260510061314 19 211 3.2 3.2 0.00 0.00 0.00 63 1002.0
20260510060815 19 198 4.8 6.4 0.00 0.00 0.00 62 1002.0
20260510060314 19 255 4.8 4.8 0.00 0.00 0.00 62 1002.0
20260510055814 19 277 3.2 3.2 0.00 0.00 0.00 63 1002.0
20260510055314 19 194 3.2 6.4 0.00 0.00 0.00 63 1002.0
20260510054814 19 195 3.2 4.8 0.00 0.00 0.00 63 1002.0
20260510054314 19 190 3.2 4.8 0.00 0.00 0.00 63 1002.0
20260510053815 19 197 3.2 3.2 0.00 0.00 0.00 64 1002.0
20260510053314 18 190 1.6 3.2 0.00 0.00 0.00 64 1001.0
20260510052814 18 202 3.2 3.2 0.00 0.00 0.00 65 1001.0
20260510052314 18 191 1.6 1.6 0.00 0.00 0.00 64 1002.0
20260510051814 19 185 1.6 3.2 0.00 0.00 0.00 63 1002.0
20260510051316 19 187 4.8 4.8 0.00 0.00 0.00 63 1002.0
20260510050814 19 187 3.2 3.2 0.00 0.00 0.00 62 1001.0
20260510050314 20 184 3.2 3.2 0.00 0.00 0.00 60 1001.0
20260510045814 20 187 4.8 4.8 0.00 0.00 0.00 60 1001.0
20260510045314 20 205 6.4 6.4 0.00 0.00 0.00 60 1001.0
20260510044814 20 193 8.0 8.0 0.00 0.00 0.00 59 1001.0
20260510044314 20 196 6.4 8.0 0.00 0.00 0.00 59 1001.0
20260510043814 20 194 6.4 6.4 0.00 0.00 0.00 59 1001.0
20260510043314 20 203 6.4 8.0 0.00 0.00 0.00 59 1001.0
20260510042815 20 190 4.8 6.4 0.00 0.00 0.00 59 1001.0
20260510042314 20 201 6.4 6.4 0.00 0.00 0.00 59 1001.0
20260510041814 20 195 4.8 4.8 0.00 0.00 0.00 58 1001.0
20260510041314 20 196 6.4 6.4 0.00 0.00 0.00 58 1001.0
20260510040814 20 195 6.4 6.4 0.00 0.00 0.00 57 1001.0
20260510040314 20 192 8.0 8.0 0.00 0.00 0.00 57 1001.0
20260510035814 20 188 6.4 6.4 0.00 0.00 0.00 56 1001.0
20260510035315 20 195 4.8 8.0 0.00 0.00 0.00 55 1001.0
20260510034814 20 202 4.8 6.4 0.00 0.00 0.00 55 1001.0
20260510034314 20 193 4.8 6.4 0.00 0.00 0.00 54 1001.0
20260510033814 21 184 6.4 8.0 0.00 0.00 0.00 53 1001.0
20260510033314 21 197 4.8 6.4 0.00 0.00 0.00 52 1001.0
20260510032816 21 191 6.4 8.0 0.00 0.00 0.00 51 1001.0
20260510032314 21 211 6.4 6.4 0.00 0.00 0.00 49 1001.0
20260510031814 21 179 8.0 8.0 0.00 0.00 0.00 48 1001.0
20260510031314 21 178 8.0 11.3 0.00 0.00 0.00 46 1000.0
20260510030814 22 193 8.0 8.0 0.00 0.00 0.00 45 1000.0
20260510030314 22 195 8.0 12.9 0.00 0.00 0.00 44 1000.0
20260510025816 22 191 11.3 11.3 0.00 0.00 0.00 43 1000.0
20260510025314 22 181 8.0 11.3 0.00 0.00 0.00 41 1000.0
20260510024814 22 187 8.0 9.7 0.00 0.00 0.00 38 1000.0
20260510024315 22 200 6.4 6.4 0.00 0.00 0.00 37 1000.0
20260510023814 22 167 0.0 1.6 0.00 0.00 0.00 38 1000.0
20260510023314 22 164 0.0 1.6 0.00 0.00 0.00 39 1000.0
20260510022815 22 153 0.0 0.0 0.00 0.00 0.00 38 1000.0
20260510022315 22 171 1.6 1.6 0.00 0.00 0.00 38 1000.0
20260510021814 23 159 1.6 1.6 0.00 0.00 0.00 38 1000.0
20260510021314 23 176 1.6 3.2 0.00 0.00 0.00 38 1000.0
20260510020814 23 171 3.2 3.2 0.00 0.00 0.00 39 1000.0
20260510020314 22 146 3.2 4.8 0.00 0.00 0.00 39 1000.0
20260510015814 22 162 3.2 3.2 0.00 0.00 0.00 41 1000.0
20260510015314 22 157 0.0 3.2 0.00 0.00 0.00 40 1000.0
20260510014814 22 178 1.6 1.6 0.00 0.00 0.00 41 1000.0
20260510014314 22 175 1.6 1.6 0.00 0.00 0.00 39 1000.0
20260510013814 22 161 0.0 0.0 0.00 0.00 0.00 41 1000.0
20260510013314 21 162 0.0 0.0 0.00 0.00 0.00 41 999.0
20260510012815 22 172 0.0 0.0 0.00 0.00 0.00 43 999.0
20260510012314 22 156 0.0 0.0 0.00 0.00 0.00 45 999.0
20260510011815 22 162 1.6 1.6 0.00 0.00 0.00 46 999.0
20260510010833 22 159 0.0 0.0 0.00 0.00 0.00 45 999.0
20260510010315 23 166 0.0 0.0 0.00 0.00 0.00 44 999.0
20260510005814 23 173 1.6 1.6 0.00 0.00 0.00 43 999.0
20260510005314 23 173 1.6 1.6 0.00 0.00 0.00 42 999.0
20260510004814 23 169 0.0 0.0 0.00 0.00 0.00 40 999.0
20260510004315 23 165 0.0 0.0 0.00 0.00 0.00 40 999.0
20260510003814 24 165 0.0 0.0 0.00 0.00 0.00 39 999.0
20260510003314 24 169 0.0 0.0 0.00 0.00 0.00 42 999.0
20260510002814 25 179 1.6 1.6 0.00 0.00 0.00 40 999.0
20260510002314 25 171 0.0 0.0 0.00 0.00 0.00 40 998.0
20260510001814 25 161 1.6 1.6 0.00 0.00 0.00 38 998.0
20260510001314 25 173 0.0 0.0 0.00 0.00 0.00 39 998.0
20260510000822 25 171 0.0 0.0 0.00 0.00 0.00 41 998.0
20260510000314 25 178 1.6 1.6 0.00 0.00 0.00 39 998.0
20260509235814 26 178 1.6 1.6 0.00 0.00 0.00 39 998.0
20260509235314 26 184 1.6 3.2 0.00 0.00 0.00 34 998.0
20260509234815 26 197 3.2 4.8 0.00 0.00 0.00 33 998.0
20260509234314 26 201 4.8 4.8 0.00 0.00 0.00 33 998.0
20260509233814 27 187 4.8 4.8 0.00 0.00 0.00 32 998.0
20260509233314 27 203 8.0 8.0 0.00 0.00 0.00 31 998.0
20260509232820 27 219 6.4 6.4 0.00 0.00 0.00 30 998.0
20260509232314 27 180 6.4 8.0 0.00 0.00 0.00 32 998.0
20260509231814 27 201 8.0 9.7 0.00 0.00 0.00 29 998.0
20260509231314 27 205 9.7 11.3 0.00 0.00 0.00 30 998.0
20260509230814 28 183 4.8 6.4 0.00 0.00 0.00 30 998.0
20260509230314 28 197 11.3 11.3 0.00 0.00 0.00 29 998.0
20260509225814 28 150 1.6 1.6 0.00 0.00 0.00 29 998.0
20260509225314 28 181 3.2 3.2 0.00 0.00 0.00 29 998.0
20260509224814 28 193 4.8 6.4 0.00 0.00 0.00 28 998.0
20260509224314 29 174 1.6 3.2 0.00 0.00 0.00 32 998.0
20260509223814 29 189 3.2 4.8 0.00 0.00 0.00 32 998.0
20260509223314 29 226 3.2 4.8 0.00 0.00 0.00 27 998.0
20260509222814 29 353 3.2 4.8 0.00 0.00 0.00 31 998.0
20260509222314 29 166 1.6 1.6 0.00 0.00 0.00 28 998.0
20260509221814 29 186 6.4 6.4 0.00 0.00 0.00 29 998.0
20260509221314 28 264 3.2 6.4 0.00 0.00 0.00 27 998.0
20260509220814 28 200 6.4 6.4 0.00 0.00 0.00 29 998.0
20260509220314 30 198 4.8 6.4 0.00 0.00 0.00 29 998.0
20260509215814 30 198 3.2 3.2 0.00 0.00 0.00 25 998.0
20260509215314 30 234 1.6 1.6 0.00 0.00 0.00 24 998.0
20260509214814 29 72 6.4 8.0 0.00 0.00 0.00 27 998.0
20260509214314 29 243 6.4 6.4 0.00 0.00 0.00 25 998.0
20260509213814 30 174 0.0 1.6 0.00 0.00 0.00 26 998.0
20260509213314 30 270 4.8 6.4 0.00 0.00 0.00 25 998.0
20260509212814 30 189 1.6 3.2 0.00 0.00 0.00 29 998.0
20260509212314 30 254 3.2 3.2 0.00 0.00 0.00 29 998.0
20260509211814 29 247 3.2 4.8 0.00 0.00 0.00 25 998.0
20260509211314 28 174 4.8 6.4 0.00 0.00 0.00 26 998.0
20260509210815 29 197 6.4 11.3 0.00 0.00 0.00 26 999.0
20260509210315 30 237 1.6 4.8 0.00 0.00 0.00 24 999.0
20260509205814 30 180 1.6 3.2 0.00 0.00 0.00 27 999.0
20260509205314 30 198 6.4 9.7 0.00 0.00 0.00 26 999.0
20260509204814 31 172 0.0 1.6 0.00 0.00 0.00 25 999.0
20260509204314 30 156 4.8 4.8 0.00 0.00 0.00 25 999.0
20260509203815 29 185 6.4 6.4 0.00 0.00 0.00 25 999.0
20260509203314 28 241 6.4 9.7 0.00 0.00 0.00 29 999.0
20260509202814 30 173 1.6 1.6 0.00 0.00 0.00 28 999.0
20260509202314 29 197 6.4 8.0 0.00 0.00 0.00 27 999.0
20260509201814 29 187 4.8 6.4 0.00 0.00 0.00 25 999.0
20260509201314 30 210 3.2 3.2 0.00 0.00 0.00 28 1000.0
20260509200814 29 321 3.2 9.7 0.00 0.00 0.00 29 1000.0
20260509200314 30 191 4.8 8.0 0.00 0.00 0.00 28 1000.0
20260509195814 29 196 3.2 4.8 0.00 0.00 0.00 28 1000.0
20260509195314 29 188 3.2 3.2 0.00 0.00 0.00 28 1000.0
20260509194814 29 36 6.4 6.4 0.00 0.00 0.00 27 1000.0
20260509194314 30 161 1.6 8.0 0.00 0.00 0.00 25 1000.0
20260509193814 28 199 3.2 6.4 0.00 0.00 0.00 28 1000.0
20260509193314 28 196 9.7 9.7 0.00 0.00 0.00 28 1000.0
20260509192815 28 148 3.2 8.0 0.00 0.00 0.00 27 1000.0
20260509192314 29 306 3.2 3.2 0.00 0.00 0.00 28 1000.0
20260509191814 28 186 3.2 9.7 0.00 0.00 0.00 30 1000.0
20260509191315 29 183 4.8 4.8 0.00 0.00 0.00 28 1000.0
20260509190816 28 242 6.4 16.1 0.00 0.00 0.00 28 1000.0
20260509190314 29 192 4.8 4.8 0.00 0.00 0.00 30 1000.0
20260509185814 28 215 3.2 4.8 0.00 0.00 0.00 25 1000.0
20260509185314 28 172 3.2 6.4 0.00 0.00 0.00 28 1000.0
20260509184814 28 238 8.0 11.3 0.00 0.00 0.00 30 1000.0
20260509184314 28 245 4.8 8.0 0.00 0.00 0.00 30 1000.0
20260509183814 29 207 4.8 4.8 0.00 0.00 0.00 31 1000.0
20260509183314 28 166 1.6 1.6 0.00 0.00 0.00 29 1000.0
20260509182814 27 204 4.8 6.4 0.00 0.00 0.00 29 1000.0
20260509182314 27 207 9.7 11.3 0.00 0.00 0.00 30 1000.0
20260509181815 27 206 11.3 11.3 0.00 0.00 0.00 31 1000.0
20260509181315 27 203 4.8 6.4 0.00 0.00 0.00 30 1000.0
20260509180814 27 188 11.3 12.9 0.00 0.00 0.00 29 1000.0
20260509180314 28 206 6.4 8.0 0.00 0.00 0.00 30 1000.0
20260509175814 28 317 4.8 6.4 0.00 0.00 0.00 32 1000.0
20260509175314 28 324 4.8 4.8 0.00 0.00 0.00 31 1000.0
20260509174814 28 218 4.8 6.4 0.00 0.00 0.00 34 1000.0
20260509174314 27 180 11.3 11.3 0.00 0.00 0.00 35 1000.0
20260509173814 27 225 3.2 6.4 0.00 0.00 0.00 33 1000.0
20260509173314 28 185 4.8 4.8 0.00 0.00 0.00 29 1000.0
20260509172815 28 212 3.2 8.0 0.00 0.00 0.00 32 1000.0
20260509172315 27 169 1.6 4.8 0.00 0.00 0.00 36 1000.0
20260509171814 27 174 4.8 4.8 0.00 0.00 0.00 35 1000.0
20260509171314 26 172 1.6 4.8 0.00 0.00 0.00 39 1000.0
20260509170814 26 203 8.0 11.3 0.00 0.00 0.00 43 1000.0
20260509170314 26 174 3.2 8.0 0.00 0.00 0.00 45 1000.0
20260509165815 26 192 4.8 4.8 0.00 0.00 0.00 43 1000.0
20260509165314 26 176 1.6 4.8 0.00 0.00 0.00 43 1000.0
20260509164815 26 186 3.2 8.0 0.00 0.00 0.00 46 1000.0
20260509164315 27 128 1.6 3.2 0.00 0.00 0.00 44 1000.0
20260509163814 27 130 1.6 1.6 0.00 0.00 0.00 47 1000.0
20260509163314 26 172 1.6 1.6 0.00 0.00 0.00 48 1000.0
20260509162814 26 147 1.6 1.6 0.00 0.00 0.00 49 1000.0
20260509162314 25 181 3.2 3.2 0.00 0.00 0.00 51 1000.0
20260509161815 25 289 4.8 4.8 0.00 0.00 0.00 51 1000.0
20260509161314 24 183 8.0 8.0 0.00 0.00 0.00 54 1000.0
20260509160814 23 181 12.9 12.9 0.00 0.00 0.00 56 1000.0
20260509160314 25 157 1.6 4.8 0.00 0.00 0.00 54 1000.0
20260509155814 25 135 1.6 3.2 0.00 0.00 0.00 55 1000.0
20260509155315 25 151 1.6 3.2 0.00 0.00 0.00 54 1000.0
20260509154814 25 223 4.8 4.8 0.00 0.00 0.00 58 1000.0
20260509154314 24 320 3.2 3.2 0.00 0.00 0.00 55 1000.0
20260509153815 23 270 3.2 6.4 0.00 0.00 0.00 58 1000.0
20260509153314 24 197 3.2 6.4 0.00 0.00 0.00 55 1000.0
20260509152814 23 143 1.6 3.2 0.00 0.00 0.00 57 1000.0
20260509152314 22 180 4.8 6.4 0.00 0.00 0.00 60 1000.0
20260509151814 23 224 1.6 4.8 0.00 0.00 0.00 60 1000.0
20260509151315 23 189 3.2 6.4 0.00 0.00 0.00 61 1000.0
20260509150815 23 170 1.6 1.6 0.00 0.00 0.00 61 1000.0
20260509150314 22 233 3.2 6.4 0.00 0.00 0.00 64 1000.0
20260509145814 21 184 6.4 6.4 0.00 0.00 0.00 65 1000.0
20260509145314 21 267 11.3 11.3 0.00 0.00 0.00 66 1000.0
20260509144814 22 174 1.6 3.2 0.00 0.00 0.00 64 1000.0
20260509144314 21 161 3.2 6.4 0.00 0.00 0.00 68 1000.0
20260509143815 21 244 3.2 3.2 0.00 0.00 0.00 67 1000.0
20260509143314 20 176 4.8 8.0 0.00 0.00 0.00 68 1000.0
20260509142814 21 160 4.8 4.8 0.00 0.00 0.00 67 1000.0
20260509142314 20 199 6.4 8.0 0.00 0.00 0.00 69 1000.0
20260509141814 20 197 4.8 4.8 0.00 0.00 0.00 70 1000.0
20260509141314 20 96 1.6 3.2 0.00 0.00 0.00 67 1000.0
20260509140814 20 238 3.2 3.2 0.00 0.00 0.00 69 1000.0
20260509140314 20 221 3.2 6.4 0.00 0.00 0.00 69 1000.0
20260509135814 20 168 1.6 1.6 0.00 0.00 0.00 70 1000.0
20260509135314 19 187 1.6 3.2 0.00 0.00 0.00 71 1000.0
20260509134814 19 209 4.8 6.4 0.00 0.00 0.00 71 1000.0
20260509134314 19 180 4.8 4.8 0.00 0.00 0.00 73 1000.0
20260509133814 18 128 1.6 1.6 0.00 0.00 0.00 75 1000.0
20260509133314 18 159 3.2 4.8 0.00 0.00 0.00 75 1000.0
20260509132814 18 227 4.8 4.8 0.00 0.00 0.00 76 1000.0
20260509132314 17 47 3.2 3.2 0.00 0.00 0.00 78 1000.0
20260509131816 17 297 4.8 6.4 0.00 0.00 0.00 79 1000.0
20260509131314 16 243 3.2 3.2 0.00 0.00 0.00 81 999.0
20260509130817 16 151 0.0 0.0 0.00 0.00 0.00 82 999.0
20260509130314 16 174 0.0 0.0 0.00 0.00 0.00 82 999.0
20260509125814 16 179 1.6 3.2 0.00 0.00 0.00 82 999.0
20260509125315 15 158 0.0 0.0 0.00 0.00 0.00 83 999.0
20260509124815 15 166 0.0 3.2 0.00 0.00 0.00 83 999.0
20260509124314 15 199 3.2 4.8 0.00 0.00 0.00 83 999.0
20260509123814 15 174 1.6 1.6 0.00 0.00 0.00 85 999.0
20260509123314 15 266 3.2 6.4 0.00 0.00 0.00 84 999.0
20260509122814 15 191 4.8 4.8 0.00 0.00 0.00 85 999.0
20260509122315 14 180 1.6 1.6 0.00 0.00 0.00 86 999.0
20260509121815 14 198 1.6 1.6 0.00 0.00 0.00 86 999.0
20260509121314 14 177 3.2 3.2 0.00 0.00 0.00 88 999.0